Wind_Speed
31 34 35 37 40 46 51 53 55 56 59 62 63 63 62 60 58 56 54 53 51 49 47 45 44 43 42 41 40 41 40 41 41 40 39 39 39 39 39 40 39 39 39
26 27 30 32 35 38 43 47 50 51 53 57 59 61 62 61 59 57 56 54 53 51 48 46 44 43 43 42 41 42 42 41 42 43 43 42 41 41 40 41 41 41 42
20 23 26 29 32 35 38 42 46 48 50 52 54 57 60 59 58 57 56 54 53 52 50 49 47 46 45 44 43 44 44 43 43 43 44 44 44 44 43 43 43 44 44
15 18 22 25 28 31 36 38 40 43 46 49 50 53 55 56 56 55 55 54 54 53 51 50 48 46 45 45 46 45 44 44 45 46 46 46 46 46 45 44 45 45 46
13 13 16 20 23 26 30 34 35 37 40 44 46 48 50 51 51 53 54 54 53 53 52 51 49 49 48 47 47 46 46 47 48 49 48 48 48 48 48 47 47 47 48
12 11 12 14 17 21 26 30 32 31 34 39 41 42 43 45 48 51 53 53 54 54 53 52 51 50 50 48 47 48 49 51 51 50 50 50 49 49 49 49 48 48 48
8 7 8 9 12 17 21 24 27 29 31 34 36 37 39 41 43 47 50 52 53 53 51 51 51 51 50 51 51 51 50 50 50 51 51 51 50 50 50 50 50 49 49
4 3 4 4 8 13 14 16 21 26 28 29 32 34 37 39 40 43 47 49 51 50 49 49 50 50 50 50 50 50 49 49 50 52 51 51 51 51 51 51 51 52 50
3 1 1 3 5 8 9 11 15 23 25 25 27 30 33 36 37 39 42 45 47 48 48 47 47 49 50 50 50 49 50 51 51 52 52 51 50 51 51 51 52 52 51
6 5 4 3 3 4 7 10 12 15 19 22 23 24 28 30 32 34 36 38 42 46 47 46 45 45 46 47 48 49 50 50 50 50 51 50 50 52 53 53 53 52 53
6 6 6 4 3 3 3 5 8 11 14 17 19 20 23 25 28 29 32 34 36 39 40 41 42 44 46 46 46 47 48 48 49 50 50 50 50 51 51 52 52 53 53
8 7 7 6 4 3 2 3 4 8 10 13 16 18 21 23 25 27 28 30 33 36 37 38 40 43 44 45 46 47 46 47 47 48 48 49 49 50 51 52 52 52 53
8 7 6 5 3 2 1 2 4 5 7 10 13 15 17 20 21 23 25 28 31 34 36 37 39 41 43 44 44 44 44 44 44 45 47 47 49 50 50 51 51 51 53
8 8 6 5 3 2 1 2 4 5 7 8 9 10 13 16 19 22 25 27 29 30 32 34 36 39 42 44 44 44 44 44 45 46 47 48 48 49 50 51 51 51 52
7 7 6 5 3 3 1 1 3 5 6 8 9 10 12 14 18 21 23 26 28 30 32 33 35 37 39 41 43 44 45 45 46 46 46 46 47 48 50 50 50 51 52
6 5 4 4 3 2 3 4 5 7 8 10 12 12 13 16 19 21 23 25 27 30 32 35 37 38 38 40 43 44 45 45 46 45 45 46 47 48 49 50 51 52 53
5 5 5 4 4 4 5 6 8 9 10 12 14 16 17 19 21 24 26 28 30 32 34 36 37 39 40 41 42 44 45 45 45 45 46 47 48 49 49 49 50 51 53
5 5 6 6 6 7 8 9 11 12 14 15 16 18 21 23 25 27 28 29 31 32 34 36 39 39 40 41 42 44 45 45 46 46 47 46 47 48 48 49 50 51 51
7 7 8 8 9 10 11 12 14 16 17 18 19 21 23 25 28 29 30 32 33 34 35 36 38 38 39 41 42 44 45 46 47 47 48 48 48 48 48 48 48 48 48
9 9 10 11 12 13 15 16 18 19 21 22 23 24 26 27 29 30 32 34 35 35 35 35 35 38 40 41 43 45 46 47 48 48 49 49 49 49 49 49 48 46 45
12 12 13 14 16 17 19 20 22 23 25 26 27 28 28 29 30 32 34 36 36 35 35 35 37 38 40 42 43 44 44 45 46 46 47 48 49 49 49 48 47 46 45
14 15 16 18 19 21 22 24 26 27 28 29 30 30 30 32 33 34 35 35 35 34 35 37 38 39 40 40 41 42 43 43 43 43 44 45 45 46 47 46 46 45 44
17 18 19 20 21 23 25 26 28 29 30 31 31 32 33 34 35 35 35 35 35 35 36 37 38 39 39 40 40 41 42 43 43 43 43 42 43 43 44 44 44 44 44
20 21 23 23 25 26 27 28 29 30 31 32 33 34 34 35 35 35 36 36 37 37 37 37 38 38 39 39 40 40 41 42 42 43 42 41 41 41 41 41 41 40 41
23 24 25 26 28 29 30 30 31 32 34 34 35 35 35 35 35 35 36 37 38 38 38 38 38 38 38 37 38 38 39 40 40 40 40 40 39 39 39 39 38 37 36
26 27 28 29 30 31 31 32 33 34 34 35 36 36 37 36 36 36 37 36 37 37 38 37 38 38 38 37 36 36 36 36 36 37 37 37 37 37 37 36 35 36 36
Wind_Direction
258 253 248 245 242 237 235 234 233 232 232 232 232 231 232 231 231 232 232 231 233 234 235 238 242 244 245 248 251 253 255 257 258 259 260 262 264 266 268 268 270 271 272
257 251 247 245 243 237 235 235 231 230 230 231 232 231 230 231 231 231 231 231 232 233 233 237 241 245 247 248 251 253 255 257 258 260 260 261 262 265 267 268 269 270 272
256 252 247 244 243 238 236 234 230 230 230 230 231 231 230 230 230 230 230 230 231 233 234 237 240 244 246 248 250 253 256 257 259 260 261 262 263 265 265 267 268 269 271
260 255 247 243 240 237 234 230 228 228 230 231 231 231 230 230 231 230 230 230 231 233 234 237 240 244 247 249 252 254 256 257 258 260 262 264 265 267 266 267 268 269 270
265 260 248 241 236 237 233 227 227 229 229 229 229 230 229 229 230 230 229 230 231 233 235 237 241 244 247 251 252 253 255 258 260 262 264 265 266 267 268 268 269 269 270
277 263 251 240 235 231 226 224 225 226 226 227 227 227 227 230 231 230 231 231 231 232 235 238 242 245 248 250 252 254 257 259 260 262 263 264 266 267 268 270 270 270 271
292 274 252 245 235 224 222 225 226 224 222 222 223 224 226 230 230 231 231 231 231 232 235 239 241 244 248 250 252 254 257 259 261 263 263 263 265 266 267 269 269 270 271
316 279 240 228 221 212 214 217 219 218 216 216 219 222 226 229 230 231 232 233 232 233 235 238 241 244 247 251 254 255 257 259 261 263 262 262 264 265 267 268 269 270 270
33 63 171 184 186 192 192 202 210 212 213 218 220 221 226 229 232 233 234 233 234 234 236 240 243 246 248 251 254 255 256 259 261 262 262 263 264 266 267 268 269 271 272
60 66 71 94 141 174 190 200 207 211 217 219 218 223 227 229 230 234 234 234 236 237 237 240 245 248 250 253 255 255 256 259 261 262 263 264 264 265 266 267 269 271 273
51 62 74 87 121 147 157 175 192 205 211 213 220 226 229 231 235 237 238 238 239 238 239 243 246 249 251 254 257 257 259 260 261 262 263 265 267 267 267 268 270 271 273
62 68 74 82 114 167 183 179 186 208 216 220 225 229 230 234 238 239 238 240 240 241 244 248 251 252 255 258 259 259 260 261 261 262 264 266 266 267 267 269 270 271 273
63 61 64 81 104 136 165 177 200 215 221 224 229 234 235 235 238 242 243 243 246 249 251 255 256 256 257 259 260 261 261 262 264 265 267 267 268 268 269 269 271 272 273
53 53 63 69 80 96 173 231 250 248 244 243 239 241 243 245 246 249 250 251 254 256 257 259 259 260 261 261 261 262 262 264 266 268 269 269 269 270 270 270 271 272 273
33 41 54 61 69 58 25 306 286 279 273 269 264 259 256 255 257 260 259 258 261 262 263 265 265 267 266 263 263 264 264 265 267 269 270 269 271 272 271 271 272 273 273
19 25 35 35 31 17 338 309 295 294 292 285 282 278 274 271 271 270 267 267 269 271 270 272 271 271 269 267 266 265 265 266 267 268 269 269 270 272 272 272 274 274 273
359 3 3 356 350 344 333 314 300 295 291 285 284 286 286 285 281 279 277 275 276 277 276 275 273 272 270 269 267 266 266 267 266 267 268 269 271 272 273 275 276 275 274
343 344 341 333 325 323 320 316 309 300 295 289 287 288 290 291 290 287 285 283 283 282 280 278 277 275 271 269 268 267 267 267 268 268 268 269 270 271 274 275 275 275 273
336 332 330 328 322 318 316 314 311 308 302 298 294 293 294 293 294 293 291 289 287 284 281 281 279 276 275 273 270 269 268 268 268 268 268 270 271 271 273 275 275 275 274
319 319 319 319 318 316 314 314 314 312 310 304 298 297 299 299 299 296 295 293 291 287 285 283 282 279 277 275 273 272 271 270 269 268 270 270 271 272 273 274 274 274 274
312 312 312 312 312 312 312 313 313 312 309 305 300 298 299 299 298 297 297 297 294 291 289 287 286 284 281 277 276 275 274 272 270 269 270 270 271 273 274 272 271 272 273
307 309 310 310 309 309 310 310 311 310 308 306 303 299 299 300 299 298 297 297 294 293 292 291 290 288 285 281 278 276 275 274 272 271 272 272 271 272 273 272 271 272 274
300 303 306 309 309 309 309 309 310 309 307 306 304 301 299 299 298 297 296 295 294 293 293 293 291 290 287 283 281 277 276 275 274 274 274 274 273 273 274 273 273 273 273
297 300 303 306 307 307 308 309 310 310 309 307 306 304 301 300 299 296 295 293 293 293 293 293 292 291 288 284 281 279 277 276 276 276 276 277 277 276 276 276 275 275 274
295 298 300 302 305 306 307 307 308 309 309 309 308 307 304 301 300 299 297 296 295 294 294 293 292 291 289 286 283 281 279 279 279 278 279 278 277 277 276 275 274 273 272
294 297 299 301 303 304 305 305 306 307 309 309 309 308 306 304 301 300 300 299 299 299 298 296 294 293 291 288 285 283 282 282 282 282 281 279 278 277 276 274 272 271 272
Height
5630 5631 5633 5635 5639 5644 5650 5657 5664 5672 5679 5687 5695 5703 5711 5719 5727 5735 5742 5748 5754 5760 5765 5770 5775 5778 5782 5786 5788 5791 5792 5794 5795 5797 5799 5800 5801 5802 5802 5802 5802 5803 5802
5622 5623 5624 5626 5630 5634 5640 5646 5653 5661 5668 5676 5683 5691 5699 5707 5715 5723 5731 5738 5744 5751 5756 5761 5766 5770 5773 5776 5779 5782 5783 5785 5786 5788 5789 5791 5793 5793 5794 5793 5793 5793 5793
5617 5617 5617 5619 5622 5626 5630 5636 5643 5650 5658 5665 5672 5678 5686 5694 5703 5711 5720 5727 5734 5741 5746 5752 5756 5760 5764 5767 5770 5773 5775 5776 5777 5778 5779 5780 5782 5784 5784 5784 5784 5783 5783
5613 5612 5612 5613 5615 5618 5622 5628 5634 5641 5648 5655 5661 5668 5675 5684 5693 5701 5709 5716 5723 5730 5736 5741 5746 5750 5754 5758 5761 5763 5765 5766 5767 5768 5769 5770 5771 5771 5773 5774 5773 5772 5772
5609 5608 5607 5608 5609 5612 5616 5621 5627 5633 5639 5646 5653 5660 5667 5675 5683 5690 5698 5705 5712 5719 5725 5731 5736 5740 5744 5748 5750 5753 5755 5756 5757 5758 5758 5759 5759 5758 5758 5760 5762 5761 5760
5606 5605 5604 5604 5606 5608 5612 5616 5621 5626 5632 5639 5645 5652 5660 5667 5673 5680 5687 5694 5702 5708 5714 5720 5726 5730 5734 5737 5739 5742 5743 5744 5746 5746 5746 5746 5747 5747 5746 5746 5747 5747 5748
5605 5604 5603 5603 5604 5606 5610 5613 5617 5622 5627 5633 5640 5646 5653 5659 5666 5673 5679 5685 5692 5698 5704 5710 5715 5719 5723 5726 5728 5730 5732 5733 5733 5734 5734 5734 5734 5734 5733 5732 5732 5733 5735
5605 5604 5604 5603 5605 5607 5609 5611 5614 5618 5624 5629 5635 5641 5647 5653 5659 5665 5671 5676 5682 5689 5695 5699 5704 5708 5711 5714 5716 5719 5720 5720 5721 5721 5721 5722 5722 5721 5720 5719 5719 5719 5720
5607 5606 5606 5605 5606 5607 5609 5610 5613 5617 5622 5627 5632 5637 5642 5647 5653 5658 5663 5668 5674 5680 5685 5689 5693 5697 5700 5702 5704 5706 5707 5708 5708 5708 5709 5709 5709 5708 5707 5706 5705 5705 5705
5610 5609 5608 5608 5608 5609 5610 5611 5614 5617 5621 5625 5630 5634 5638 5643 5648 5652 5656 5661 5666 5671 5675 5679 5682 5686 5688 5690 5692 5694 5695 5695 5695 5695 5696 5696 5696 5695 5694 5693 5692 5690 5690
5612 5611 5610 5611 5611 5611 5612 5614 5615 5617 5620 5624 5627 5631 5635 5639 5643 5647 5650 5654 5658 5662 5666 5670 5672 5675 5677 5678 5680 5681 5682 5682 5683 5683 5683 5683 5682 5682 5681 5679 5678 5677 5676
5615 5614 5613 5613 5614 5614 5615 5616 5617 5619 5621 5623 5627 5630 5633 5636 5639 5642 5644 5647 5651 5655 5658 5660 5663 5664 5666 5667 5668 5669 5669 5670 5670 5671 5670 5670 5669 5668 5667 5666 5665 5664 5662
5618 5617 5616 5616 5616 5617 5617 5618 5619 5620 5622 5624 5626 5628 5630 5632 5634 5637 5639 5641 5644 5646 5649 5651 5652 5654 5655 5656 5657 5658 5658 5658 5658 5658 5658 5657 5656 5655 5654 5652 5651 5650 5649
5621 5620 5619 5618 5618 5618 5619 5620 5620 5620 5621 5623 5624 5626 5627 5629 5631 5633 5634 5636 5637 5638 5640 5641 5643 5644 5644 5644 5645 5645 5646 5646 5646 5645 5645 5644 5642 5641 5640 5639 5637 5636 5634
5623 5621 5620 5620 5619 5619 5620 5620 5620 5620 5621 5622 5623 5624 5625 5626 5627 5628 5629 5630 5630 5631 5632 5632 5633 5632 5632 5633 5633 5633 5633 5633 5633 5633 5631 5630 5629 5628 5626 5624 5623 5621 5619
5624 5623 5622 5621 5620 5620 5620 5620 5620 5620 5620 5620 5621 5621 5622 5622 5623 5623 5623 5623 5623 5623 5623 5622 5622 5621 5621 5621 5621 5620 5621 5620 5620 5619 5618 5617 5616 5614 5612 5610 5608 5606 5604
5625 5624 5622 5621 5621 5620 5620 5620 5619 5619 5619 5618 5618 5618 5618 5618 5617 5616 5616 5615 5614 5614 5613 5612 5611 5610 5609 5609 5608 5608 5607 5607 5606 5605 5605 5603 5602 5600 5598 5596 5593 5591 5588
5625 5624 5623 5622 5621 5620 5619 5619 5618 5617 5616 5615 5614 5613 5612 5611 5610 5608 5607 5606 5605 5604 5603 5601 5600 5598 5597 5595 5595 5594 5593 5593 5592 5591 5590 5589 5587 5585 5582 5580 5578 5576 5574
5625 5623 5622 5621 5620 5619 5617 5616 5615 5613 5611 5610 5608 5607 5605 5604 5602 5600 5598 5597 5595 5593 5591 5589 5587 5585 5584 5582 5581 5579 5579 5578 5577 5576 5575 5574 5572 5570 5567 5565 5564 5562 5560
5623 5622 5621 5619 5618 5616 5615 5613 5611 5608 5606 5604 5602 5600 5598 5596 5593 5592 5590 5587 5585 5582 5579 5577 5574 5572 5570 5567 5566 5564 5563 5562 5562 5561 5559 5557 5556 5554 5551 5549 5548 5547 5546
5621 5620 5618 5617 5615 5613 5611 5609 5606 5603 5601 5598 5595 5593 5590 5588 5585 5583 5580 5577 5574 5571 5568 5566 5563 5559 5556 5553 5551 5549 5547 5546 5545 5544 5543 5541 5539 5537 5536 5534 5533 5533 5532
5618 5617 5615 5613 5611 5608 5606 5604 5601 5598 5594 5591 5588 5585 5582 5579 5576 5572 5569 5566 5563 5560 5557 5554 5550 5546 5543 5540 5537 5534 5532 5530 5529 5528 5527 5526 5524 5522 5521 5520 5519 5518 5518
5615 5613 5611 5609 5606 5603 5601 5598 5595 5591 5587 5584 5580 5577 5573 5570 5566 5562 5559 5555 5552 5550 5546 5542 5539 5534 5530 5527 5524 5521 5518 5516 5515 5514 5513 5512 5510 5509 5508 5507 5506 5505 5505
5610 5608 5606 5603 5601 5598 5595 5591 5588 5584 5580 5576 5572 5568 5564 5560 5556 5552 5548 5545 5541 5538 5534 5530 5526 5522 5517 5513 5510 5508 5505 5503 5502 5500 5499 5498 5497 5496 5496 5495 5494 5493 5493
5605 5602 5600 5597 5595 5591 5588 5584 5580 5576 5572 5567 5563 5559 5554 5550 5546 5542 5537 5534 5530 5525 5521 5517 5513 5509 5505 5500 5497 5495 5493 5491 5490 5488 5487 5486 5485 5485 5484 5483 5482 5482 5482
5599 5596 5593 5591 5587 5584 5580 5576 5572 5568 5564 5559 5554 5550 5545 5540 5536 5532 5527 5522 5518 5513 5508 5504 5500 5496 5492 5488 5486 5483 5481 5479 5478 5477 5476 5475 5474 5473 5472 5472 5471 5471 5471